www.pogodaiklimat.ru
ПОГОДА на Базе ВВС Неллис
Время
(UTC), дата
11:56 17.04
12:56 17.04
13:58 17.04
14:58 17.04
15:58 17.04
16:58 17.04
17:58 17.04
18:19 17.04
18:51 17.04
18:58 17.04
19:58 17.04
20:58 17.04
21:58 17.04
22:58 17.04
00:58 17.04
01:58 17.04
02:58 17.04
03:58 17.04
04:58 17.04
05:58 17.04
06:56 17.04
07:56 18.04
08:56 18.04
09:56 18.04
10:56 18.04
11:56 18.04
12:58 18.04
13:58 18.04
14:58 18.04
15:58 18.04
16:58 18.04
17:58 18.04
18:58 18.04
19:58 18.04
20:58 18.04
21:58 18.04
23:58 18.04
00:58 18.04
01:58 18.04
02:58 18.04
03:58 18.04
04:58 18.04
05:58 18.04
06:58 18.04
07:58 19.04
08:58 19.04
09:58 19.04
10:58 19.04
Ветер
(напр.,м/с)
Видим. Явления Облачность Т
(С)
Тd
(С)
f
(%)
Тe
(С)
Тes
(С)
Комфортность P
(гПа)
Po
(гПа)
Тmin
(С)
Tmax
(С)
R
(мм)
R24
(мм)
S
(см)
СВ 4
{10}
16 км 5/0 5700 м
[средняя]
+15.9 -3.8 26 +15 +15 1010.4 946.4
С 8
{11}
16 км ясно +16.3 -3.3 26 +15 +15 1011.6 946.4
С 12
{14}
16 км ясно +17.5 -3.9 23 +16 +16 946.4
С 9
{13}
16 км ясно +18.9 -3.9 21 +18 +18 947.1
С 8
{12}
16 км ясно +19.9 -3.7 20 +19 +20 947.4
С 7 16 км ясно +21.0 -2.8 20 +20 +22 947.1 +15.8 +21.1
С 6
{8}
16 км ясно +22.4 -1.7 20 +21 +25 комфорт 946.4
СВ 7 16 км ясно +23.0 -2.0 19 +22 +25 комфорт 946.1
СВ 6
{9}
16 км ясно +23.0 -2.0 19 +22 +26 комфорт 945.5
С 5
{9}
16 км ясно +23.0 -1.9 19 +22 +28 комфорт 945.5
В 3 16 км 2/0 5400 м
[средняя верхняя]
+24.0 -1.8 18 +22 +35 комфорт 944.5
0 16 км 5/0 5700 м
[средняя]
+23.5 -2.2 18 +22 +36 комфорт 943.6
0 16 км 2/0 5700 м
[средняя]
+24.6 -2.9 16 +23 +38 комфорт 943.0
С 2 16 км 5/0 5400 м
[средняя]
+23.8 -2.7 17 +22 +27 комфорт 942.3 +21.1 +24.7
ЮЗ 3 16 км 5/0 3600 м
[средняя]
+23.4 -1.6 19 +22 +23 комфорт 1006.3 941.4
СЗ 6 16 км 8/0 3000 м
[средняя]
+21.9 0.0 23 +21 +21 комфорт 1006.9 942.6
В 4 16 км 8/0 3000 м
[средняя]
+20.9 +1.2 27 +21 +21 комфорт 1007.9 943.9
ЮВ 3 16 км 8/0 2100 м
[средняя]
+20.0 +1.7 30 +20 +20 1008.3 945.2
СВ 2 16 км 8/0 3600 м
[средняя]
+19.6 +0.4 28 +20 +20 1008.6 944.5 +23.2 +23.8
З 3 16 км 5/0 4800 м
[средняя]
+18.2 +2.0 34 +18 +18 1008.6 944.5
ЮЗ 4 16 км ясно +17.1 +3.6 41 +17 +17 1008.6 944.5
Ю 4 16 км ясно +15.7 +3.5 44 +15 +15 1008.9 944.9
ЮЗ 3 16 км ясно +14.9 +3.5 46 +14 +14 1009.0 944.9
ЮЗ 4 16 км ясно +14.7 +3.9 48 +14 +14 1008.8 944.5
З 1 16 км ясно +14.1 +3.9 50 +14 +14 1009.2 944.9 +14.2 +20.3
З 2 16 км 2/0 6900 м
[верхняя]
+13.8 +4.0 52 +13 +13 1010.0 945.5
0 16 км ясно +13.1 +4.8 57 +13 +13 1011.0 945.5
0 16 км 2/0 5700 м
[средняя]
+15.1 +4.7 50 +15 +16 946.1
Ю 3 16 км ясно +16.9 +4.9 45 +17 +19 946.4
ЮЗ 3 16 км 5/0 3600 м
[средняя]
+18.6 +4.7 40 +19 +23 946.8
0 16 км 5/0 3900 м
[средняя]
+19.3 +3.8 36 +20 +30 946.8 +13.0 +19.4
ЮЗ 3 16 км 5/0 3000 м
[средняя]
+20.2 +4.2 35 +21 +29 комфорт 946.4
0 16 км 8/0 2100 м
[средняя]
+20.8 +3.9 33 +21 +32 комфорт 945.8
ЮЗ 4 16 км 10/0 3300 м
[средняя]
+21.3 +2.5 29 +21 +24 комфорт 945.5
Ю 4 16 км 5/0 3300 м
[средняя]
+21.6 +3.3 30 +22 +27 комфорт 944.9
ЮВ 6 16 км 8/0 3300 м
[средняя]
+22.3 +3.4 29 +22 +24 комфорт 944.2
ЮВ 2 16 км ясно +22.3 +3.9 30 +22 +26 комфорт 943.9
Ю 4 16 км ясно +21.9 +3.5 30 +22 +23 комфорт 1009.6 944.2
Ю 3 16 км ясно +20.9 +2.2 29 +22 +22 комфорт 1009.4 944.9
ЮЗ 2 16 км 2/0 2700 м
[средняя]
+20.2 +2.7 31 +21 +21 комфорт 1010.3 945.8
0 16 км ясно +18.0 +2.7 36 +18 +18 1011.0 946.1
З 1 16 км ясно +18.0 +3.2 37 +19 +19 1010.9 946.1 +20.3 +22.6
З 2 16 км ясно +16.7 +3.7 42 +17 +17 1011.0 946.4
ЮЗ 2 16 км ясно +16.3 +3.0 41 +16 +16 1011.2 946.4
С 0 16 км ясно +15.1 +3.2 45 +17 +17 1011.2 946.4
В 1 16 км ясно +13.0 +3.6 53 +13 +13 1011.2 945.8
С 1 16 км ясно +13.1 +3.6 52 +13 +13 1011.3 946.4
СВ 1 16 км ясно +11.9 +3.5 56 +12 +12 1011.6 946.4 +12.2 +17.2
Местоположение метеостанции Nellis Air Force Base: широта 36.2333 долгота -115.0333 высота над уровнем моря 570 м.
В архиве по умолчанию представлена погода на Базе ВВС Неллис за последние 1-2 суток. Обновление информации о фактической погоде в базе происходит ежечасно! Архивные данные за месяц целиком и за предыдущие месяцы Вы можете получить, выбрав интересующий диапазон дат из раскрывающегося списка и нажав кнопку "Ввод!".
Внимание! Архив погоды МЕТАР в базе сайта по станциям, не включенным в климатический монитор, хранится не более 60 дней. Нет смысла пытаться выбрать более раннюю дату.
*Определитесь, кто Вы:
Внимание! Время в таблицах - всемирное. Для получения местного времени необходимо прибавить поправку, которая равна ч.
Смотрите также архив погоды в соседних городах и на ближайших метеорологических станциях:
Партнеры нашего сайта:      
Пояснения к столбцам:
  • Ветер - указаны скорость ветра в м/с - средняя за 10 мин, порывы в срок и между сроками (в фигурных скобках) и направление, откуда дует ветер: С - северный,
  • СВ - северо-восточный, В - восточный, ЮВ - юго-восточный, Ю - южный, ЮЗ - юго-западный, З - западный, СЗ - северо-западный.
  • Видимость - горизонтальная дальность видимости в метрах или километрах. При видимости от 1 до 10 км при отсутствии осадков обычно наблюдается дымка, при ухудшении видимости до 1 км и менее - туман. В сухую погоду видимость может ухудшаться дымом, пылью или мглою.
  • Явления - указаны атмосферные явления, наблюдавшиеся в срок или в последний час перед сроком; фигурными скобками обозначены явления, наблюдавшиеся между сроками (за 1-3 часа до срока); квадратными скобками обозначены град или гололедные отложения с указанием их диаметра в мм.
  • Облачность - указаны через наклонную черту общая и нижняя облачность в баллах и высота нижней границы облаков в метрах; квадратными скобками обозначены формы облаков: Ci - перистые, Cs - перисто-слоистые, Cc - перисто-кучевые, Ac - высококучевые, As - высокослоистые, Sc - слоисто-кучевые, Ns - слоисто-дождевые, Cu - кучевые, Cb - кучево-дождевые. Подробнее классификацию облаков см. в Атласе облаков (PDF).
  • T - Температура воздуха - температура, измеренная на высоте 2 м над землей.
  • Td - Температура точки росы - температура, при понижении до которой содержащийся в воздухе водяной пар достигнет насыщения.
  • f - Относительная влажность воздуха - влажноcть воздуха, измеренная на высоте 2 м над землей.
  • Te - Эффективная температура - температура, которую ощущает одетый по сезону человек в тени. Характеристика душности погоды. При расчете учитывается влияние влажности воздуха и скорости ветра на теплоощущения человека.
  • Tes - Эффективная температура на солнце - температура, которую ощущает человек, с поправкой на солнечный нагрев. Характеристика знойности погоды. Зависит от высоты солнца над горизонтом, облачности и скорости ветра. Ночью, в пасмурную погоду, а также при ветре 12 м/с и более поправка равна нулю.
  • P - Атмосферное давление - приведенное к уровню моря атмосферное давление.
  • Po - Атмосферное давление - измеренное на уровне метеостанции атмосферное давление.
  • Tmin - Минимальная температура - минимум температуры воздуха на высоте 2 м над землей.
  • Tmax - Максимальная температура - максимум температуры воздуха на высоте 2 м над землей.
  • R - Количество осадков - Количество выпавших осадков за период времени, мм. При наведении курсора мыши на число - период времени, за который выпало указанное количество осадков.
  • R24 - Количество осадков - Количество выпавших осадков за 24 часа, мм.
  • S - Снежный покров - Высота снежного покрова, см. При наведении курсора мыши на число - состояние снежного покрова и степень покрытия местности в баллах.